Temp
53 52 53 53 53 53 50 44 37 47 50 42 43 40 44 48 46 46 44 41 40 38 39 36 35 38 41 46 45 41 44 37 30 34 37 39 38 38 39 33 32 28 26 35
53 53 52 53 53 52 46 41 40 47 47 36 38 44 45 46 47 46 43 41 42 42 40 36 38 40 42 42 44 41 43 37 28 31 34 37 36 37 39 39 37 35 28 37
53 53 53 53 53 53 47 40 33 39 40 37 35 38 39 39 38 37 39 40 40 39 37 41 38 39 38 40 40 45 43 38 35 35 34 36 33 34 37 41 35 38 38 42
53 53 53 53 53 53 46 39 35 37 31 32 32 33 32 32 32 34 36 34 35 35 35 38 37 35 36 37 38 38 38 33 36 39 39 39 37 37 37 36 38 35 40 40
53 52 53 52 52 52 43 36 36 36 33 33 32 33 31 31 32 32 32 31 32 32 31 31 29 32 33 32 36 35 35 31 32 33 37 37 33 36 37 39 39 39 40 38
53 52 52 52 52 50 42 41 43 38 34 33 31 31 32 32 34 34 35 34 33 31 32 35 36 36 36 35 33 32 31 30 28 25 32 31 27 31 34 37 30 32 30 29
51 52 52 52 52 50 43 40 39 33 29 32 32 33 33 33 33 32 34 34 33 36 40 39 38 36 36 35 34 36 30 31 29 25 27 19 27 33 34 30 30 31 31 34
51 51 52 52 52 51 45 43 39 32 26 32 33 34 34 35 36 34 34 35 38 40 37 27 25 27 29 31 33 34 34 30 25 23 23 28 27 29 30 29 27 32 34 36
51 50 50 51 52 52 46 44 44 37 29 29 36 33 35 31 32 33 35 38 39 38 33 24 17 19 25 26 28 34 33 32 27 25 21 19 25 31 35 34 25 35 36 36
50 49 48 50 51 52 46 43 45 39 30 34 36 31 32 36 33 29 33 35 35 38 30 22 20 20 28 20 23 24 28 28 24 24 22 24 31 34 36 21 24 37 36 35
51 50 49 49 49 52 47 43 45 41 33 33 37 37 34 34 33 27 32 33 33 32 27 23 23 21 24 21 24 25 24 22 20 21 17 16 34 34 27 32 36 36 34 34
51 51 51 50 49 50 48 41 45 45 37 35 38 39 40 41 41 36 32 29 29 32 25 22 23 22 20 19 17 27 23 28 24 26 25 34 35 35 38 38 35 35 35 35
51 51 50 49 49 49 47 42 43 41 34 34 35 34 39 40 40 42 31 34 35 32 33 24 20 18 20 15 17 19 27 30 24 25 28 32 34 35 35 35 35 35 35 34
51 51 51 50 49 49 47 41 42 40 35 28 27 37 34 37 39 39 39 38 36 37 34 29 22 21 24 18 22 19 26 28 24 24 28 29 31 31 33 33 33 31 31 31
50 50 51 51 50 49 45 43 43 43 35 24 23 31 32 33 34 35 36 38 35 32 29 27 21 22 24 20 21 18 25 24 24 23 29 28 27 27 28 26 26 27 26 26
50 50 50 50 49 47 42 34 41 44 42 32 17 26 26 30 31 32 33 36 33 33 30 27 27 28 26 17 12 23 26 28 31 28 23 26 26 25 24 22 24 25 25 25
49 49 49 49 47 41 34 30 36 44 41 28 17 19 25 31 33 31 32 34 31 31 28 26 27 26 27 18 11 23 24 23 22 20 22 22 20 18 20 22 23 24 24 25
49 48 47 47 46 42 35 39 45 42 34 26 11 16 19 31 27 26 28 28 29 26 24 21 25 24 21 16 21 17 16 18 18 17 18 18 19 20 20 21 21 20 20 21
48 48 47 40 36 32 34 44 41 39 29 16 15 12 12 28 25 26 24 27 22 25 21 24 25 22 18 20 15 13 13 14 14 17 17 16 16 16 17 17 17 17 18 20
45 35 26 20 33 43 42 35 32 32 30 23 16 15 13 25 26 24 25 25 18 7 19 23 22 21 13 10 10 9 9 10 12 9 14 15 14 14 13 14 16 17 18 19
29 18 19 32 41 32 28 22 21 19 16 24 25 17 14 21 17 22 22 13 13 6 14 15 13 14 3 9 7 7 5 6 8 9 11 13 12 11 12 14 16 17 18 17
34 32 37 32 27 23 19 18 16 17 16 19 20 23 19 17 20 18 20 16 18 9 14 11 6 4 11 9 8 8 6 6 9 10 8 11 14 13 11 13 15 16 17 17
36 29 23 21 18 10 7 0 5 6 16 15 16 14 18 17 23 15 16 12 12 16 10 8 0 10 10 5 8 12 12 9 12 14 15 15 14 16 13 12 15 15 14 15
29 21 15 14 7 9 9 8 8 13 15 15 13 12 16 18 17 18 17 19 17 10 2 -1 3 6 7 8 11 8 9 10 10 11 12 12 12 12 14 14 12 11 12 15
24 22 13 10 11 6 7 6 11 14 15 12 12 14 17 14 13 15 16 12 6 3 1 6 10 14 15 15 15 14 13 13 10 11 11 11 12 11 10 13 14 11 11 11
17 14 10 16 10 6 7 8 9 12 12 16 17 12 11 10 12 10 7 3 0 3 10 14 15 14 14 12 12 11 10 8 8 6 8 10 8 8 9 9 7 9 10 9
10 7 14 14 11 8 9 10 8 10 12 12 11 8 8 5 3 2 6 2 8 8 10 13 11 6 6 7 9 11 11 9 7 3 5 6 8 -0 -2 3 9 8 10 9
MSLP
1014.90 1014.74 1014.80 1015.07 1014.59 1015.10 1015.37 1016.16 1016.40 1016.42 1016.42 1016.65 1015.92 1015.26 1015.21 1015.16 1015.14 1015.14 1015.55 1015.67 1015.91 1015.95 1016.00 1016.38 1016.74 1016.40 1016.02 1015.58 1015.65 1016.31 1016.24 1016.84 1017.74 1017.17 1017.24 1017.41 1017.61 1017.51 1017.72 1018.18 1018.23 1017.87 1017.14 1012.40
1014.46 1014.69 1015.00 1015.02 1015.18 1015.62 1016.05 1016.22 1016.44 1016.50 1016.42 1015.90 1015.52 1015.21 1015.12 1015.19 1015.63 1015.74 1015.80 1016.18 1016.08 1016.18 1016.32 1016.57 1016.39 1016.32 1016.37 1016.20 1016.25 1016.51 1016.57 1016.80 1017.31 1017.41 1017.74 1017.52 1017.47 1017.20 1016.89 1016.90 1016.92 1016.16 1016.79 1013.22
1014.29 1014.74 1014.97 1015.12 1015.30 1015.64 1016.25 1016.63 1016.72 1016.82 1016.86 1016.76 1016.22 1015.83 1015.74 1016.07 1016.62 1016.70 1016.74 1016.61 1016.62 1016.72 1016.72 1016.42 1016.57 1017.01 1017.36 1017.18 1017.51 1017.42 1017.00 1016.85 1016.58 1016.11 1016.54 1016.50 1017.21 1017.09 1017.13 1017.02 1016.57 1015.71 1013.82 1013.74
1014.24 1014.49 1014.66 1014.99 1015.34 1015.63 1016.22 1016.93 1016.92 1016.98 1017.38 1017.48 1017.12 1016.88 1016.95 1016.97 1017.38 1017.71 1017.64 1017.71 1017.80 1017.42 1017.49 1017.41 1017.52 1017.92 1018.34 1018.53 1018.60 1018.28 1018.31 1017.54 1017.02 1016.13 1016.26 1016.61 1016.77 1016.96 1017.08 1017.13 1016.57 1016.36 1014.31 1015.33
1013.93 1014.09 1014.48 1014.90 1015.28 1015.63 1016.07 1017.07 1017.31 1017.68 1017.82 1017.69 1017.58 1017.58 1017.81 1017.83 1018.26 1018.49 1018.62 1018.55 1018.75 1018.64 1018.71 1018.97 1019.14 1019.33 1019.50 1019.67 1019.61 1019.51 1019.40 1018.24 1017.82 1016.65 1016.95 1017.10 1017.03 1017.16 1017.19 1017.05 1017.08 1016.68 1016.64 1016.68
1013.56 1013.94 1014.35 1014.71 1015.14 1015.56 1016.12 1016.85 1017.26 1017.44 1017.98 1018.07 1018.06 1018.30 1018.41 1018.62 1018.70 1019.26 1019.35 1019.45 1019.39 1019.67 1020.14 1020.22 1020.34 1020.36 1020.41 1020.63 1020.61 1020.35 1020.22 1019.61 1019.06 1018.16 1017.97 1018.16 1018.15 1017.75 1017.31 1017.24 1018.35 1018.17 1018.37 1019.50
1013.45 1013.93 1014.28 1014.46 1014.74 1015.19 1015.81 1016.27 1016.78 1017.62 1018.34 1018.28 1018.41 1018.82 1018.82 1018.97 1019.18 1019.47 1019.88 1019.96 1019.89 1020.71 1020.57 1020.65 1020.67 1020.68 1020.69 1020.82 1020.72 1020.78 1020.50 1020.19 1019.84 1019.31 1019.26 1019.17 1019.06 1018.93 1018.56 1018.86 1019.64 1019.93 1020.06 1019.97
1013.31 1013.81 1014.10 1014.39 1014.63 1014.96 1015.61 1015.86 1016.44 1017.31 1018.33 1018.13 1018.44 1018.88 1018.91 1019.18 1019.43 1019.72 1020.02 1020.28 1020.29 1020.42 1020.68 1021.00 1021.03 1021.04 1020.96 1020.50 1020.38 1020.45 1020.80 1020.60 1020.29 1019.99 1019.48 1019.31 1019.54 1019.78 1019.78 1019.78 1020.27 1020.35 1019.99 1019.69
1013.36 1013.83 1014.05 1014.13 1014.44 1014.65 1015.25 1015.78 1016.05 1016.87 1017.82 1018.39 1017.82 1018.54 1018.91 1019.16 1019.50 1019.74 1019.97 1020.12 1020.38 1020.50 1021.02 1021.48 1022.01 1021.69 1021.11 1020.95 1020.57 1020.32 1020.53 1020.86 1020.76 1020.24 1019.89 1019.60 1019.83 1020.23 1019.86 1019.99 1019.85 1019.77 1019.83 1019.78
1013.29 1013.91 1014.25 1014.25 1014.11 1014.29 1014.82 1015.81 1016.15 1016.82 1017.66 1017.99 1017.97 1018.22 1018.45 1018.79 1019.37 1019.82 1020.00 1020.36 1020.67 1020.65 1021.26 1022.06 1022.36 1022.19 1021.63 1021.52 1021.01 1020.79 1020.62 1020.81 1020.81 1020.44 1020.03 1019.64 1019.82 1020.03 1019.81 1020.18 1020.23 1019.38 1019.56 1019.84
1013.17 1013.58 1014.04 1014.27 1014.42 1014.49 1015.05 1015.68 1015.98 1016.59 1017.59 1018.04 1018.03 1018.09 1018.27 1018.70 1019.09 1019.57 1020.18 1020.61 1020.75 1020.96 1021.54 1022.30 1022.50 1022.74 1022.35 1022.18 1021.39 1020.93 1020.74 1020.59 1020.82 1020.69 1020.51 1020.00 1019.54 1019.64 1019.84 1019.87 1019.52 1019.66 1019.66 1019.66
1013.07 1013.34 1013.73 1014.10 1014.50 1014.59 1014.86 1015.73 1015.97 1016.30 1017.39 1018.21 1018.28 1018.30 1018.30 1018.21 1018.53 1019.37 1019.82 1019.94 1020.07 1020.42 1021.47 1022.56 1022.72 1023.14 1023.32 1022.79 1022.30 1021.31 1021.20 1020.26 1020.23 1020.08 1019.81 1019.46 1019.37 1019.36 1019.53 1019.68 1019.99 1019.88 1019.84 1019.76
1013.22 1013.32 1013.70 1014.12 1014.50 1014.68 1014.92 1015.73 1016.21 1016.78 1017.88 1018.46 1018.51 1018.43 1018.26 1018.35 1018.70 1018.75 1019.37 1019.98 1019.87 1020.33 1020.69 1021.95 1022.76 1023.22 1023.18 1023.15 1022.74 1022.02 1020.98 1020.33 1020.21 1020.20 1019.94 1019.86 1019.37 1019.71 1019.68 1019.81 1020.12 1020.23 1020.13 1020.09
1013.26 1013.30 1013.49 1013.94 1014.35 1014.85 1015.23 1015.73 1016.21 1016.64 1017.77 1018.49 1018.79 1018.56 1018.62 1018.66 1018.81 1018.93 1018.81 1019.10 1019.76 1020.36 1021.15 1021.73 1022.43 1023.18 1022.69 1022.78 1022.54 1022.22 1021.04 1020.80 1020.53 1020.58 1020.23 1020.11 1019.94 1020.18 1020.25 1020.38 1020.70 1020.95 1020.70 1020.53
1013.30 1013.38 1013.49 1013.78 1014.30 1014.84 1015.55 1015.99 1016.22 1016.47 1017.38 1018.46 1019.19 1018.91 1018.96 1019.07 1018.98 1018.91 1019.02 1019.38 1019.85 1020.61 1021.03 1021.52 1022.28 1022.25 1022.78 1023.24 1022.99 1022.00 1021.00 1020.47 1020.73 1020.73 1020.62 1020.90 1020.77 1021.06 1021.18 1021.47 1021.63 1021.69 1021.30 1020.68
1013.51 1013.44 1013.49 1013.72 1014.44 1015.10 1015.80 1016.56 1016.86 1016.77 1017.22 1018.61 1019.80 1019.87 1019.67 1019.61 1019.22 1019.22 1019.35 1019.63 1019.98 1020.27 1020.65 1021.21 1021.45 1021.73 1022.30 1022.89 1022.95 1020.89 1020.38 1020.15 1020.36 1020.90 1021.11 1021.31 1021.31 1021.59 1022.00 1022.26 1022.46 1022.07 1021.51 1021.17
1013.89 1013.82 1014.05 1014.63 1015.28 1015.66 1016.40 1016.86 1017.07 1016.90 1017.29 1018.83 1020.28 1020.45 1020.41 1019.97 1019.82 1019.96 1019.96 1020.01 1020.32 1020.66 1020.99 1021.39 1021.76 1022.00 1022.19 1023.02 1022.76 1021.55 1021.34 1021.39 1021.56 1021.86 1021.94 1021.98 1022.39 1022.81 1022.91 1022.94 1022.68 1022.23 1021.83 1021.57
1014.61 1014.69 1014.96 1015.39 1015.75 1016.47 1017.00 1017.15 1017.02 1017.16 1018.25 1019.33 1020.50 1021.04 1020.96 1020.42 1020.26 1020.56 1020.74 1020.63 1020.76 1021.10 1021.35 1021.93 1022.09 1022.54 1022.91 1023.22 1021.91 1022.33 1022.72 1022.77 1023.00 1023.11 1023.13 1023.20 1023.25 1023.20 1023.26 1023.17 1022.91 1022.43 1021.96 1021.75
1015.21 1015.40 1015.64 1015.91 1016.62 1017.34 1017.50 1017.39 1017.64 1017.90 1019.00 1020.04 1021.15 1021.59 1021.58 1021.04 1021.06 1021.03 1021.29 1021.15 1021.46 1021.91 1021.74 1021.95 1022.29 1022.93 1023.38 1022.92 1023.49 1024.03 1024.45 1024.37 1024.24 1023.99 1023.85 1023.90 1023.98 1023.99 1023.85 1023.65 1023.36 1023.07 1022.59 1022.19
1015.77 1016.16 1016.74 1017.99 1017.91 1017.62 1017.69 1018.06 1018.45 1018.71 1019.43 1020.42 1021.16 1021.66 1021.84 1021.58 1021.40 1021.49 1021.70 1021.61 1022.02 1022.41 1021.85 1022.08 1022.45 1022.89 1023.77 1024.78 1025.37 1025.62 1025.67 1025.53 1025.30 1024.97 1024.79 1024.74 1024.73 1024.69 1024.55 1024.37 1024.04 1023.63 1023.13 1022.65
1016.68 1017.61 1018.18 1018.31 1018.02 1018.45 1018.88 1019.69 1020.17 1020.49 1020.79 1020.86 1021.17 1021.58 1021.72 1021.73 1021.66 1021.56 1021.62 1022.08 1022.47 1022.80 1021.97 1022.50 1023.08 1023.90 1025.03 1025.72 1026.05 1026.34 1026.37 1026.23 1026.09 1025.93 1025.73 1025.49 1025.36 1025.19 1024.87 1024.43 1024.06 1023.69 1023.28 1022.92
1016.58 1017.12 1017.96 1018.43 1019.02 1019.94 1020.81 1021.46 1021.69 1021.66 1021.66 1021.63 1021.66 1021.72 1021.81 1021.80 1021.59 1021.52 1021.83 1022.05 1022.55 1022.53 1022.55 1023.47 1024.35 1025.21 1025.93 1026.37 1026.55 1026.69 1026.59 1026.49 1026.33 1026.02 1025.81 1025.46 1025.21 1024.95 1024.73 1024.44 1024.10 1023.77 1023.41 1023.04
1017.11 1017.75 1018.80 1019.30 1020.58 1021.50 1022.35 1022.69 1022.82 1022.73 1022.29 1022.33 1022.17 1022.29 1022.02 1021.91 1021.76 1021.62 1021.81 1022.04 1022.31 1022.36 1023.28 1024.18 1025.67 1026.01 1026.48 1026.72 1026.77 1026.73 1026.53 1026.44 1026.20 1025.86 1025.55 1025.32 1025.07 1024.83 1024.64 1024.34 1023.94 1023.70 1023.39 1022.92
1017.85 1018.83 1020.01 1020.62 1021.60 1022.09 1022.49 1022.87 1022.99 1023.15 1023.00 1022.91 1022.77 1022.58 1022.26 1022.01 1021.92 1021.70 1021.82 1021.82 1022.31 1023.33 1024.42 1025.30 1026.22 1026.52 1026.77 1026.71 1026.75 1026.69 1026.45 1026.23 1026.09 1025.85 1025.47 1025.24 1024.98 1024.59 1024.30 1024.01 1023.73 1023.45 1023.11 1022.56
1019.27 1019.89 1020.81 1021.62 1022.36 1022.96 1023.36 1023.73 1023.87 1023.96 1023.75 1023.52 1023.28 1023.03 1022.84 1022.73 1022.58 1022.27 1022.45 1022.82 1023.49 1024.51 1025.25 1025.85 1026.23 1026.34 1026.52 1026.58 1026.56 1026.45 1026.24 1025.93 1025.77 1025.56 1025.31 1024.96 1024.70 1024.35 1023.85 1023.53 1023.26 1023.01 1022.52 1022.24
1021.16 1021.70 1022.25 1022.61 1023.31 1024.20 1024.43 1024.75 1025.01 1024.90 1024.55 1024.14 1024.01 1024.02 1023.97 1023.94 1023.82 1023.74 1023.96 1024.56 1025.05 1025.86 1026.10 1026.35 1026.52 1026.61 1026.70 1026.67 1026.46 1026.21 1025.98 1025.74 1025.47 1025.21 1024.98 1024.69 1024.40 1024.06 1023.54 1023.09 1022.87 1022.34 1021.95 1021.48
1023.06 1023.56 1023.40 1023.70 1024.27 1024.87 1025.51 1025.77 1026.08 1025.92 1025.58 1025.52 1025.38 1025.48 1025.30 1025.53 1025.48 1025.72 1025.92 1026.34 1026.67 1027.00 1027.04 1026.90 1026.96 1027.01 1026.86 1026.60 1026.29 1025.90 1025.59 1025.29 1025.01 1024.70 1024.38 1024.07 1023.68 1023.55 1023.48 1022.71 1021.60 1021.38 1020.97 1020.58
Wind_Speed
8 4 2 3 6 7 6 2 3 0 2 6 3 11 6 3 6 4 4 1 4 7 7 7 5 8 4 3 7 9 7 5 5 12 1 2 3 6 7 5 6 3 2 12
9 7 5 4 7 4 2 2 2 2 2 8 9 3 11 3 10 7 7 8 6 5 7 3 7 6 4 8 2 5 5 4 2 1 4 2 4 5 4 2 3 12 5 8
10 8 7 9 8 8 3 1 2 1 2 2 1 4 3 7 4 4 1 1 2 4 5 5 4 7 4 4 5 7 1 4 7 14 4 4 5 6 5 8 8 10 21 21
13 13 9 7 9 10 4 2 1 2 2 2 2 2 2 3 3 3 6 4 2 2 7 9 8 3 3 7 8 4 4 7 5 9 4 4 7 6 8 11 12 11 16 11
13 13 13 9 9 9 3 3 2 1 2 2 3 3 2 2 3 3 3 4 3 5 4 3 4 2 3 2 5 3 3 6 5 12 2 5 9 7 8 13 14 16 19 18
13 12 10 14 13 4 2 2 1 2 2 2 2 2 3 4 2 3 5 4 3 7 3 1 0 0 1 1 1 0 1 1 2 5 4 4 9 3 6 5 10 4 1 7
3 9 8 12 16 9 3 3 4 3 3 2 3 4 2 4 3 3 3 3 3 3 3 3 3 5 6 7 7 5 1 1 2 3 2 5 4 4 10 13 10 7 5 9
11 7 9 7 13 16 1 2 4 3 3 3 4 7 4 5 2 2 3 2 2 2 1 2 3 1 1 5 6 11 8 1 2 3 3 1 1 4 3 2 5 6 6 7
8 4 6 7 12 15 4 2 2 3 6 4 4 6 4 3 3 4 3 2 3 2 2 3 2 2 2 1 1 4 7 7 3 2 4 4 4 3 4 4 4 2 4 8
11 7 7 6 7 10 4 2 4 3 3 2 4 3 5 4 3 2 3 3 3 2 2 1 2 3 1 3 3 4 3 3 7 6 4 2 5 4 3 4 5 5 3 5
12 14 13 8 4 3 4 3 2 4 3 2 3 2 4 3 3 4 4 3 0 2 3 3 3 3 3 0 3 4 5 5 4 2 2 6 4 2 4 4 6 6 5 3
4 12 10 9 5 4 7 2 2 3 3 2 1 0 0 3 5 3 2 3 4 4 3 1 2 2 0 3 3 1 4 5 4 7 4 2 4 4 3 4 4 4 4 5
2 8 12 8 6 5 6 3 3 4 3 1 1 3 1 4 4 3 4 2 3 2 2 4 2 3 4 4 5 1 4 3 3 3 1 5 2 0 1 2 5 4 4 5
4 6 11 14 14 12 6 2 2 5 3 3 4 1 1 2 1 6 2 5 4 4 2 2 3 3 3 3 1 4 5 4 3 4 5 4 6 3 4 5 5 5 7 5
3 5 8 15 15 15 6 3 1 2 3 4 3 2 2 3 2 4 3 5 5 2 3 3 4 2 3 0 1 5 6 6 5 7 5 5 6 3 3 4 4 5 6 8
5 1 5 12 15 15 3 2 0 2 3 2 1 3 4 6 3 3 3 4 2 2 2 2 2 1 3 3 4 4 4 4 4 4 2 4 5 1 4 3 5 6 5 7
8 8 14 19 13 5 3 3 3 6 4 3 3 4 3 2 2 2 2 1 1 2 2 2 2 2 3 2 5 3 3 3 2 4 4 2 4 1 6 4 5 7 3 3
9 17 20 19 17 9 4 3 7 4 4 3 3 4 3 3 1 1 2 2 1 1 2 1 2 1 1 4 7 4 3 3 4 4 3 3 5 4 5 5 5 6 6 7
15 15 10 4 5 3 0 3 9 4 4 4 3 4 4 1 1 1 1 1 1 1 2 3 4 3 6 3 4 4 3 2 4 6 3 3 3 4 5 6 6 5 6 6
10 7 5 4 1 6 7 3 1 1 1 3 2 1 2 1 1 1 2 1 2 2 5 4 4 4 4 4 2 1 3 3 4 4 3 4 3 5 5 5 5 5 5 7
4 3 2 2 3 3 3 2 1 2 3 1 1 3 2 2 4 4 2 3 1 1 5 5 3 3 2 4 3 3 3 2 2 2 2 4 4 5 5 7 6 6 6 6
4 5 4 2 3 3 2 1 2 2 3 2 1 1 2 1 1 3 2 3 2 6 2 3 3 2 2 3 3 3 3 3 4 2 4 6 5 5 5 5 6 7 7 8
3 4 3 3 3 4 5 4 4 2 1 1 1 0 1 2 1 0 3 3 5 3 1 3 2 3 2 3 3 4 3 3 5 5 5 6 6 6 4 6 6 7 8 8
2 4 3 5 2 4 4 4 4 1 1 1 1 1 2 1 1 2 2 1 2 1 1 3 3 3 3 3 3 2 6 6 6 7 7 7 7 7 7 7 6 6 9 10
1 0 4 3 1 1 1 2 3 2 2 1 2 1 1 1 1 3 1 1 2 1 3 2 1 2 2 3 5 6 7 7 6 6 6 7 8 8 10 7 7 6 9 10
3 4 3 2 3 2 2 2 2 2 2 1 0 1 2 2 0 2 1 2 3 2 1 2 3 5 5 6 7 8 8 7 7 6 7 9 8 9 11 9 8 10 10 10
3 2 2 2 3 2 2 1 1 3 1 2 2 3 6 1 3 1 0 3 1 2 3 4 3 4 7 8 9 9 8 8 8 6 8 9 9 5 5 11 10 7 9 9
Wind_Direction
248 268 228 159 66 71 67 158 189 98 202 180 196 220 196 216 200 153 233 126 204 191 177 179 218 206 248 192 151 160 213 156 191 207 215 197 212 206 162 180 226 231 166 259
231 224 220 200 153 150 125 154 109 357 278 202 205 194 210 189 195 196 191 211 200 196 191 218 191 199 51 18 113 153 187 218 307 319 4 359 211 207 210 110 105 229 217 257
223 221 220 194 177 159 89 212 154 89 32 10 59 186 190 178 26 73 25 121 116 163 214 243 232 202 38 54 38 8 350 225 199 245 185 112 174 197 208 211 243 257 243 278
225 228 224 214 195 155 107 353 74 38 173 200 127 66 91 105 114 58 14 62 357 171 222 214 220 51 60 64 6 44 30 251 206 261 224 213 202 201 196 212 234 231 268 264
248 242 232 200 174 144 96 133 195 67 93 93 95 77 63 89 98 55 59 90 73 34 90 33 69 46 42 47 17 51 23 275 9 280 266 255 277 275 256 243 255 259 265 269
230 232 245 226 181 144 124 153 76 113 86 74 80 38 65 74 85 70 63 106 96 80 69 75 99 340 322 38 22 83 290 302 81 287 35 17 279 326 274 136 43 352 306 8
142 235 252 250 193 175 131 181 116 122 138 129 112 126 95 92 70 89 76 97 87 178 219 263 235 236 236 237 228 223 237 200 171 255 92 225 119 17 67 99 88 67 48 343
188 204 230 243 212 188 130 139 119 127 120 143 127 168 149 154 123 122 122 155 212 153 152 50 35 49 231 230 223 210 211 188 245 249 207 17 119 50 17 304 152 12 345 329
173 161 6 232 244 205 111 93 90 98 122 231 124 148 165 141 166 159 127 101 129 112 69 66 114 207 234 295 228 176 188 219 241 208 234 237 139 210 283 217 213 257 2 328
141 143 253 349 29 184 129 122 120 112 107 210 140 160 165 143 120 106 121 145 166 149 164 160 174 242 225 213 216 186 163 187 224 246 266 276 141 244 210 60 279 323 341 292
194 186 197 209 359 114 134 104 156 118 125 199 168 146 128 113 131 146 178 106 92 151 180 159 215 202 221 122 242 188 180 168 210 145 221 250 188 234 129 216 290 287 305 273
215 194 190 210 179 41 133 104 107 115 98 152 138 142 340 84 120 116 212 178 160 166 114 149 120 213 231 174 248 0 249 196 195 185 205 122 188 180 225 261 259 271 283 295
245 198 183 163 178 66 93 108 124 84 96 18 56 231 18 95 193 219 142 197 186 146 131 157 169 199 127 180 237 230 254 178 197 60 249 172 259 35 341 280 269 311 298 309
230 210 189 177 176 167 115 93 133 93 98 118 272 14 258 1 266 221 190 139 102 99 170 147 159 191 164 209 178 189 206 144 172 278 299 330 291 219 297 328 340 346 336 325
283 225 206 185 163 151 103 90 92 121 115 171 249 336 31 12 317 221 172 146 122 154 177 154 204 158 132 16 45 251 179 179 164 222 198 184 258 97 26 357 325 313 322 318
41 133 158 156 140 128 121 99 233 121 97 109 359 298 23 359 46 126 147 140 103 171 157 176 166 257 143 158 214 259 212 183 179 233 143 226 286 168 52 328 305 300 305 303
47 99 114 108 106 75 85 168 199 133 104 93 354 341 321 334 66 50 81 79 129 144 139 177 153 205 145 140 223 182 111 65 42 42 348 310 48 244 323 319 305 318 310 343
89 94 85 92 92 69 36 352 86 73 91 81 102 270 11 351 117 109 337 136 136 50 132 95 186 117 146 243 239 101 49 275 119 46 2 277 294 348 350 335 342 354 358 347
113 110 109 69 43 54 80 61 74 49 110 139 111 146 240 287 89 107 57 44 111 30 183 201 154 165 225 261 27 56 19 25 321 321 309 50 52 10 360 350 353 352 341 343
85 44 48 24 352 322 93 24 40 151 82 44 176 68 197 95 150 127 140 357 187 171 231 134 216 230 75 15 350 336 342 350 349 23 11 4 359 355 338 328 318 318 322 323
43 63 87 227 15 52 35 54 95 323 347 195 81 155 153 291 148 182 178 184 191 144 250 158 224 253 319 334 10 346 352 2 325 205 239 268 253 277 297 311 315 317 315 315
161 127 109 67 52 50 100 273 338 179 237 331 134 136 179 249 104 114 196 179 159 246 151 110 253 287 346 5 332 316 330 344 338 319 289 297 289 284 277 284 301 304 302 303
36 55 67 83 312 51 141 219 291 276 264 336 9 162 173 27 168 171 132 182 223 94 118 220 233 299 342 318 313 330 327 320 310 313 299 292 284 282 247 275 275 273 286 287
146 137 210 172 253 237 183 175 173 200 86 16 18 277 149 201 158 215 242 194 145 211 327 241 255 257 276 296 287 319 306 303 299 295 293 290 286 285 282 263 262 272 285 290
92 122 220 195 145 43 178 182 94 38 320 15 24 346 97 307 254 195 303 221 262 139 211 227 232 288 274 305 315 302 297 303 295 284 285 286 284 281 284 277 271 259 273 278
57 49 81 102 72 338 27 39 95 9 328 255 3 86 68 282 348 14 187 87 222 225 127 11 327 317 310 308 304 298 287 278 279 275 277 286 282 279 282 289 278 273 265 269
56 10 7 39 59 111 94 41 46 345 287 154 100 139 215 12 42 315 250 184 127 33 301 295 300 286 292 296 297 294 288 284 277 270 276 273 273 273 288 285 286 260 265 260